Location: Bailleul
(50.3375°N, 2.8513°E)
Time: 09:01:24
(UTC+00:00)

Meteor 2-10 Rocket - Pass Details

Date: 19 April 2021
Orbit: 735 x 884 km, 81.2° (Epoch: 05 May)

Event Time Altitude Azimuth Distance (km) Brightness Sun altitude
Rises 19:12:05 0° 180° (S) 3,228 6.5 -4.2°
Reaches altitude 10° 19:14:24 10° 177° (S) 2,326 5.7 -4.5°
Maximum altitude 19:19:34 63° 97° (E) 893 3.6 -5.2°
Drops below altitude 10° 19:25:01 10° 18° (NNE) 2,442 6.2 -6.0°
Sets 19:27:30 0° 15° (NNE) 3,403 7.0 -6.4°
